ARG2447 SAVC-SAWH

Flight info

Callsign ARG2447
Flight time 0h 35m
Altitude 37000
Route BODUN1G BODUN DCT SJU UW45 GRA T108 DABLI DABLI1Q
Aircraft B77W/H-SDE1E2E3FGHIJ2J3J4J5M1RWXY/LB1D1

Departure

Time 2026-04-26 05:14
Airport General Enrique Mosconi International Airport (SAVC)

Arrival

Time 2026-04-26 05:49
Airport Ushuaia - Malvinas Argentinas International Airport (SAWH)
Time Latitude Longitude Altitude Speed Heading
2026-04-26 04:35 -45.78944 -67.46960 201 ft 0 kts 229°
2026-04-26 05:05 -45.78933 -67.46945 201 ft 2 kts 248°
2026-04-26 05:06 -45.78926 -67.46921 201 ft 4 kts 197°
2026-04-26 05:06 -45.78927 -67.46919 201 ft 4 kts 213°
2026-04-26 05:06 -45.78925 -67.46934 201 ft 0 kts 277°
2026-04-26 05:09 -45.78923 -67.46956 201 ft 0 kts 276°
2026-04-26 05:09 -45.78923 -67.46964 201 ft 1 kts 276°
2026-04-26 05:09 -45.78922 -67.47003 201 ft 7 kts 271°
2026-04-26 05:10 -45.78921 -67.47108 211 ft 13 kts 270°
2026-04-26 05:10 -45.78891 -67.47203 201 ft 12 kts 326°
2026-04-26 05:10 -45.78817 -67.47213 210 ft 11 kts 41°
2026-04-26 05:10 -45.78762 -67.46841 206 ft 24 kts 80°
2026-04-26 05:11 -45.78581 -67.45481 207 ft 44 kts 78°
2026-04-26 05:11 -45.78522 -67.44996 212 ft 7 kts 80°
2026-04-26 05:11 -45.78506 -67.44910 201 ft 8 kts 68°
2026-04-26 05:11 -45.78449 -67.44852 206 ft 4 kts 17°
2026-04-26 05:12 -45.78448 -67.44852 201 ft 0 kts 17°
2026-04-26 05:13 -45.78382 -67.44833 200 ft 18 kts
2026-04-26 05:13 -45.78312 -67.44916 205 ft 20 kts 275°
2026-04-26 05:13 -45.78356 -67.45280 201 ft 65 kts 259°
2026-04-26 05:13 -45.78507 -67.46408 213 ft 162 kts 259°
2026-04-26 05:14 -45.78723 -67.48255 670 ft 194 kts 258°
2026-04-26 05:14 -45.78979 -67.50093 1968 ft 179 kts 249°
2026-04-26 05:14 -45.79531 -67.51622 3082 ft 173 kts 237°
2026-04-26 05:14 -45.80201 -67.53234 3437 ft 205 kts 236°
2026-04-26 05:15 -45.80934 -67.55150 3908 ft 231 kts 234°
2026-04-26 05:15 -45.81685 -67.57229 4707 ft 239 kts 235°
2026-04-26 05:15 -45.86040 -67.63666 5253 ft 239 kts 210°
2026-04-26 05:15 -45.91378 -67.69101 5115 ft 229 kts 210°
2026-04-26 05:16 -45.96537 -67.74383 5148 ft 225 kts 211°
2026-04-26 05:16 -46.01937 -67.79270 5758 ft 230 kts 199°
2026-04-26 05:16 -46.07869 -67.82707 9676 ft 240 kts 199°
2026-04-26 05:16 -46.14318 -67.86372 13154 ft 257 kts 188°
2026-04-26 05:17 -46.21993 -67.83827 15837 ft 316 kts 167°
2026-04-26 05:17 -46.31249 -67.79800 18184 ft 378 kts 167°
2026-04-26 05:17 -46.41865 -67.75230 20961 ft 413 kts 167°
2026-04-26 05:17 -46.53198 -67.70360 23742 ft 434 kts 167°
2026-04-26 05:18 -46.65046 -67.65249 26185 ft 453 kts 166°
2026-04-26 05:18 -46.77596 -67.64757 28464 ft 456 kts 186°
2026-04-26 05:18 -46.90372 -67.65837 30363 ft 464 kts 184°
2026-04-26 05:18 -47.03170 -67.66622 32623 ft 452 kts 183°
2026-04-26 05:19 -47.15449 -67.67373 34426 ft 446 kts 183°
2026-04-26 05:19 -47.27906 -67.68147 35731 ft 448 kts 183°
2026-04-26 05:19 -47.40418 -67.68928 36894 ft 450 kts 183°
2026-04-26 05:19 -47.52909 -67.69711 37214 ft 448 kts 183°
2026-04-26 05:20 -47.77435 -67.71259 37143 ft 437 kts 183°
2026-04-26 05:20 -48.01764 -67.72810 37130 ft 437 kts 183°
2026-04-26 05:21 -48.26110 -67.74376 37144 ft 436 kts 183°
2026-04-26 05:21 -48.50239 -67.75942 37146 ft 436 kts 183°
2026-04-26 05:22 -48.74526 -67.77536 37149 ft 436 kts 183°
2026-04-26 05:22 -48.98740 -67.79139 37148 ft 433 kts 182°
2026-04-26 05:23 -49.22794 -67.80748 37149 ft 431 kts 182°
2026-04-26 05:23 -49.46688 -67.80956 37156 ft 428 kts 179°
2026-04-26 05:24 -49.70407 -67.80411 37143 ft 424 kts 179°
2026-04-26 05:24 -49.93960 -67.80103 37150 ft 423 kts 179°
2026-04-26 05:25 -50.17413 -67.79798 37147 ft 422 kts 179°
2026-04-26 05:25 -50.40915 -67.79488 37147 ft 422 kts 179°
2026-04-26 05:26 -50.64427 -67.79178 37159 ft 422 kts 179°
2026-04-26 05:26 -50.87891 -67.78863 37157 ft 420 kts 179°
2026-04-26 05:27 -51.11290 -67.78545 37153 ft 418 kts 179°
2026-04-26 05:27 -51.34298 -67.78233 37161 ft 414 kts 179°
2026-04-26 05:28 -51.57288 -67.77916 37163 ft 410 kts 179°
2026-04-26 05:28 -51.80100 -67.77596 37140 ft 407 kts 179°
2026-04-26 05:29 -52.02773 -67.77280 37139 ft 407 kts 179°
2026-04-26 05:29 -52.25271 -67.76961 37116 ft 407 kts 179°
2026-04-26 05:30 -52.42201 -67.76713 37117 ft 407 kts 179°
2026-04-26 05:30 -52.61548 -67.76437 37099 ft 407 kts 179°
2026-04-26 05:31 -52.84242 -67.76092 37107 ft 407 kts 179°
2026-04-26 05:31 -53.06759 -67.75737 37089 ft 406 kts 179°
2026-04-26 05:32 -53.29372 -67.75372 37066 ft 404 kts 179°
2026-04-26 05:32 -53.51059 -67.75029 37059 ft 399 kts 179°
2026-04-26 05:33 -53.61981 -67.74855 36803 ft 380 kts 179°
2026-04-26 05:33 -53.72570 -67.74680 33859 ft 383 kts 179°
2026-04-26 05:33 -53.83160 -67.74085 30451 ft 383 kts 176°
2026-04-26 05:33 -53.93522 -67.72913 27716 ft 363 kts 175°
2026-04-26 05:34 -54.03344 -67.71852 25236 ft 345 kts 175°
2026-04-26 05:34 -54.12707 -67.70848 22918 ft 330 kts 174°
2026-04-26 05:34 -54.21721 -67.69876 20741 ft 317 kts 175°
2026-04-26 05:34 -54.30460 -67.68928 18675 ft 316 kts 176°
2026-04-26 05:35 -54.39431 -67.67956 16583 ft 328 kts 178°
2026-04-26 05:35 -54.42552 -67.67615 15811 ft 326 kts 178°
2026-04-26 05:35 -54.44811 -67.67367 15265 ft 325 kts 178°
2026-04-26 05:35 -54.47078 -67.67120 14716 ft 327 kts 178°
2026-04-26 05:36 -54.49361 -67.66871 14179 ft 331 kts 178°
2026-04-26 05:36 -54.51698 -67.66614 13624 ft 341 kts 178°
2026-04-26 05:36 -54.54034 -67.66353 13164 ft 341 kts 177°
2026-04-26 05:36 -54.56398 -67.66088 12781 ft 336 kts 177°
2026-04-26 05:37 -54.58674 -67.65832 12694 ft 321 kts 178°
2026-04-26 05:37 -54.60858 -67.65587 12601 ft 307 kts 178°
2026-04-26 05:37 -54.62946 -67.65353 12510 ft 295 kts 178°
2026-04-26 05:37 -54.64959 -67.65126 12427 ft 283 kts 178°
2026-04-26 05:38 -54.66884 -67.64910 12325 ft 271 kts 178°
2026-04-26 05:38 -54.68722 -67.64704 12096 ft 261 kts 178°
2026-04-26 05:38 -54.70526 -67.64500 11798 ft 258 kts 178°
2026-04-26 05:38 -54.72305 -67.64299 11517 ft 255 kts 178°
2026-04-26 05:39 -54.74073 -67.64101 11254 ft 252 kts 178°
2026-04-26 05:39 -54.75815 -67.63911 11019 ft 249 kts 179°
2026-04-26 05:39 -54.77543 -67.63725 10738 ft 248 kts 179°
2026-04-26 05:39 -54.79204 -67.64067 10547 ft 237 kts 201°
2026-04-26 05:40 -54.80601 -67.65390 10374 ft 227 kts 216°
2026-04-26 05:40 -54.81571 -67.67519 10053 ft 230 kts 243°
2026-04-26 05:40 -54.81927 -67.70207 9869 ft 227 kts 258°
2026-04-26 05:40 -54.82066 -67.72887 9802 ft 218 kts 258°
2026-04-26 05:41 -54.82201 -67.75442 9670 ft 206 kts 258°
2026-04-26 05:41 -54.82311 -67.77847 9383 ft 196 kts 258°
2026-04-26 05:41 -54.82409 -67.80188 8758 ft 193 kts 258°
2026-04-26 05:41 -54.82500 -67.82471 7824 ft 190 kts 258°
2026-04-26 05:42 -54.82591 -67.84795 6708 ft 195 kts 258°
2026-04-26 05:42 -54.82684 -67.87123 5682 ft 193 kts 259°
2026-04-26 05:42 -54.82771 -67.89423 4918 ft 179 kts 259°
2026-04-26 05:42 -54.82847 -67.91477 4725 ft 170 kts 259°
2026-04-26 05:43 -54.82890 -67.93511 4524 ft 171 kts 259°
2026-04-26 05:43 -54.82993 -67.95520 4263 ft 163 kts 257°
2026-04-26 05:43 -54.83080 -67.97467 4002 ft 159 kts 258°
2026-04-26 05:43 -54.83152 -67.99256 3746 ft 141 kts 258°
2026-04-26 05:44 -54.83213 -68.00864 3524 ft 130 kts 258°
2026-04-26 05:44 -54.83276 -68.02428 3377 ft 131 kts 258°
2026-04-26 05:44 -54.83336 -68.03988 3171 ft 129 kts 259°
2026-04-26 05:44 -54.83398 -68.05540 2976 ft 129 kts 259°
2026-04-26 05:45 -54.83461 -68.07081 2765 ft 127 kts 260°
2026-04-26 05:45 -54.83516 -68.08606 2561 ft 126 kts 261°
2026-04-26 05:45 -54.83575 -68.10123 2374 ft 126 kts 261°
2026-04-26 05:45 -54.83634 -68.11644 2179 ft 126 kts 262°
2026-04-26 05:46 -54.83693 -68.13149 1985 ft 125 kts 262°
2026-04-26 05:46 -54.83752 -68.14651 1792 ft 124 kts 262°
2026-04-26 05:46 -54.83809 -68.16142 1601 ft 123 kts 262°
2026-04-26 05:46 -54.83866 -68.17609 1411 ft 123 kts 263°
2026-04-26 05:47 -54.83925 -68.19088 1219 ft 122 kts 264°
2026-04-26 05:47 -54.83985 -68.20553 1001 ft 120 kts 264°
2026-04-26 05:47 -54.84044 -68.22000 774 ft 119 kts 264°
2026-04-26 05:47 -54.84101 -68.23427 619 ft 119 kts 264°
2026-04-26 05:48 -54.84158 -68.24878 413 ft 125 kts 264°
2026-04-26 05:48 -54.84215 -68.26380 293 ft 125 kts 265°
2026-04-26 05:48 -54.84268 -68.27866 123 ft 121 kts 265°
2026-04-26 05:48 -54.84319 -68.29284 92 ft 113 kts 265°
2026-04-26 05:49 -54.84365 -68.30446 86 ft 75 kts 266°
2026-04-26 05:49 -54.84358 -68.31298 92 ft 10 kts 323°
2026-04-26 05:49 -54.84283 -68.31323 90 ft 12 kts 358°
2026-04-26 05:50 -54.84197 -68.31328 87 ft 12 kts 358°
2026-04-26 05:50 -54.84112 -68.31313 92 ft 13 kts 20°
2026-04-26 05:50 -54.84041 -68.31265 87 ft 6 kts 21°
2026-04-26 05:50 -54.84027 -68.31255 87 ft 0 kts 22°